Date,TemperatureHighF,TemperatureAvgF,TemperatureLowF,DewpointHighF,DewpointAvgF,DewpointLowF,HumidityHigh,HumidityAvg,HumidityLow,PressureMaxIn,PressureMinIn,WindSpeedMaxMPH,WindSpeedAvgMPH,GustSpeedMaxMPH,PrecipitationSumIn
2013-1-1,27.3,16.2,6.2,26.0,12.0,2.0,97,83,71,29.90,29.63,7,1,0,0.00
2013-1-2,13.4,4.1,-7.9,10.0,0.1,-12.0,91,83,69,30.22,29.86,6,1,0,0.00
2013-1-3,10.4,-1.5,-11.1,3.0,-6.1,-15.0,96,81,62,30.23,29.96,2,0,0,0.00
2013-1-4,30.1,21.1,5.0,27.0,17.8,0.0,96,87,75,29.95,29.74,5,1,0,0.00
2013-1-5,29.9,21.8,10.9,27.0,16.5,8.0,94,80,63,30.22,29.74,11,1,0,0.00
2013-1-6,30.3,21.5,11.3,29.0,19.7,9.0,100,92,89,30.18,29.90,5,0,0,0.00
2013-1-7,30.6,19.7,10.6,30.0,15.9,8.0,96,85,65,30.34,29.92,4,1,0,0.00
2013-1-8,37.5,24.5,13.1,25.0,19.1,10.0,93,81,57,30.36,30.20,4,0,0,0.04
2013-1-9,38.6,26.6,16.6,31.0,23.0,15.0,96,87,65,30.37,29.91,8,1,0,0.00
2013-1-10,36.3,33.4,27.2,32.0,27.3,23.0,96,79,69,30.52,29.95,10,2,0,0.01
2013-1-11,33.2,28.2,19.3,33.0,23.9,17.0,98,84,68,30.52,30.13,1,0,0,0.01
2013-1-12,39.7,35.8,33.1,39.0,35.4,33.0,99,98,96,30.16,30.06,4,0,0,0.53
2013-1-13,43.1,37.6,33.3,43.0,37.6,33.0,100,99,99,30.11,29.89,3,0,0,0.20
2013-1-14,46.7,39.9,32.0,47.0,36.0,25.0,100,87,63,30.22,29.78,5,1,0,0.01
2013-1-15,31.9,29.1,24.6,26.0,22.1,20.0,85,75,65,30.29,30.19,3,0,0,0.00
2013-1-16,28.5,26.3,24.7,28.0,24.4,21.0,97,92,84,30.21,29.75,1,0,0,0.00
2013-1-17,29.9,20.3,7.0,28.0,12.9,-6.0,97,75,42,30.12,29.75,5,1,0,0.00
2013-1-18,15.2,5.9,-5.8,3.0,-5.0,-12.0,78,62,43,30.36,30.10,4,0,0,0.00
2013-1-19,33.8,22.7,10.7,29.0,18.0,3.0,93,82,69,30.28,29.76,1,0,0,0.00
2013-1-20,37.4,30.0,12.4,32.0,21.8,7.0,88,72,51,29.86,29.42,13,2,0,0.09
2013-1-21,18.1,10.1,-1.7,10.0,3.1,-5.0,88,75,48,30.02,29.80,4,0,0,0.00
2013-1-22,14.4,8.5,-1.6,9.0,3.0,-12.0,91,79,56,30.03,29.77,5,1,0,0.00
2013-1-23,-0.9,-7.2,-13.6,-8.0,-15.9,-19.0,78,66,48,30.16,30.02,5,1,0,0.00
2013-1-24,6.8,-5.2,-16.4,-7.0,-14.6,-21.0,81,65,38,30.34,30.11,7,1,0,0.00
2013-1-25,11.8,3.0,-7.6,-1.0,-5.8,-12.0,84,68,48,30.34,30.09,3,0,0,0.00
2013-1-26,12.6,5.8,-1.6,1.0,-2.8,-6.0,87,69,46,30.25,30.06,5,0,0,0.00
2013-1-27,17.0,5.7,-2.7,2.0,-2.4,-6.0,89,71,44,30.51,30.25,5,0,0,0.00
2013-1-28,16.1,8.3,-0.5,14.0,3.8,-5.0,92,82,65,30.48,30.06,1,0,0,0.00
2013-1-29,30.4,20.6,10.1,30.0,18.5,8.0,97,91,83,30.20,30.05,2,0,0,0.00
2013-1-30,49.5,41.5,30.4,50.0,41.2,30.0,100,98,96,30.05,29.32,6,1,0,0.68
2013-1-31,53.0,38.6,22.5,53.0,31.8,7.0,100,79,50,29.43,28.76,12,3,0,0.72